Location: Bukit Lungun
(2.6833°N, 113.9667°E)
Time: 14:17:12
(UTC+00:00)

deb Ariane - Pass Details

Date: 02 March 2021
Orbit: 348 x 24244 km, 7.6° (Epoch: 20 April)

Event Time Altitude Azimuth Distance (km) Brightness Sun altitude
Exits shadow 21:33:16 26° 223° (SW) 781 3.3 -15.9°
Maximum altitude 21:34:12 38° 175° (S) 557 2.9 -15.7°
Drops below altitude 10° 21:36:26 10° 101° (ESE) 1,322 6.2 -15.1°
Sets 21:38:36 0° 92° (E) 2,453 8.1 -14.6°
